SB KEPS @ AMSAT $ORB25262.1
2Line Orbital Elements 25262.AMSAT
QST de W1STR
AMSAT Orbital Elements for Amateur Satellites in TLE Format
From Orbital Analysis Office
New England Sci-Tech STEM Education Center
Natick MA September 19, 2025
To all radio amateurs
These element sets describe the orbits of various satellites
in use by the amateur radio community. For details see:
www.amsat.org/keplerian-elements-formats/
A daily update of element sets is available at:
www.amsat.org/tle/daily-bulletin.txt
or without bulletin text:
www.amsat.org/tle/dailytle.txt
AO-07
1 07530U 74089B 25261.02130321 -.00000025 00000-0 13526-3 0 9999
2 07530 101.9986 266.3687 0011922 291.5181 81.5665 12.53691598326417
UO-11
1 14781U 84021B 25261.23266574 .00001512 00000-0 16375-3 0 9991
2 14781 97.7664 225.6836 0008154 16.2916 343.8563 14.89677715216621
AO-27
1 22825U 93061C 25261.05694872 .00000089 00000-0 51166-4 0 9995
2 22825 98.7271 323.0677 0008575 171.2118 188.9216 14.30829382668082
FO-29
1 24278U 96046B 25261.08361217 -.00000014 00000-0 18453-4 0 9993
2 24278 98.5580 141.6807 0350914 82.1838 281.8983 13.53253695436362
NOAA-15
1 25338U 98030A 25261.21904267 .00000144 00000-0 76706-4 0 9997
2 25338 98.5319 283.9114 0011350 67.4544 292.7837 14.27017264422501
GO-32
1 25397U 98043D 25260.93585498 .00000084 00000-0 56275-4 0 9997
2 25397 98.9822 242.2010 0000340 328.1364 31.9794 14.24339250412576
ISS
1 25544U 98067A 25261.15495302 .00009099 00000-0 16508-3 0 9995
2 25544 51.6329 206.2777 0004341 352.6018 7.4906 15.50367586529587
NO-44
1 26931U 01043C 25261.02766016 .00000157 00000-0 89954-4 0 9995
2 26931 67.0496 228.1185 0007062 275.0902 84.9394 14.31779501251487
SO-50
1 27607U 02058C 25261.04732480 .00001656 00000-0 21953-3 0 9992
2 27607 64.5510 250.3470 0066525 312.9469 46.6067 14.81894576224116
CO-55
1 27844U 03031E 25260.59376165 .00000298 00000-0 14858-3 0 9997
2 27844 98.6792 267.5925 0008437 255.8478 104.1764 14.24068842152870
CO-57
1 27848U 03031J 25260.94068674 .00000259 00000-0 13343-3 0 9998
2 27848 98.6823 267.8644 0008321 274.7393 85.2835 14.23393551152648
RS-22
1 27939U 03042A 25261.25414442 .00001126 00000-0 18520-3 0 9990
2 27939 98.3369 73.2083 0012334 54.5754 68.1146 14.72591258175515
CO-58
1 28895U 05043F 25260.90698772 .00001560 00000-0 26030-3 0 9993
2 28895 98.2640 46.6104 0014172 353.6567 6.4458 14.71348428 61695
CO-65
1 32785U 08021C 25261.20785654 .00006053 00000-0 42570-3 0 9994
2 32785 97.7959 233.2374 0008196 224.4003 135.6567 15.05437870944219
CO-66
1 32791U 08021J 25260.91198254 .00013667 00000-0 61594-3 0 9998
2 32791 97.7367 243.4033 0004578 144.3240 215.8302 15.21161432945739
RS-30
1 32953U 08025A 25261.24213566 .00000004 00000-0 -44756-4 0 9997
2 32953 82.5069 164.5938 0018650 182.8662 177.2314 12.43168109785902
NOAA-19
1 33591U 09005A 25261.22268957 .00000077 00000-0 64884-4 0 9990
2 33591 98.9883 326.4502 0014785 80.7257 279.5586 14.13407613856061
SRMSAT
1 37841U 11058D 25261.20087223 .00000420 00000-0 84198-4 0 9998
2 37841 19.9716 265.6382 0011973 91.7497 348.1531 14.11465140719344
ZACUBE-1
1 39417U 13066B 25261.11219155 .00005315 00000-0 45087-3 0 9992
2 39417 97.7907 217.6974 0045813 76.5184 284.1137 14.97545238639959
Delfi-N3xt
1 39428U 13066N 25260.76268694 .00008227 00000-0 81132-3 0 9992
2 39428 97.8285 177.3386 0084020 31.5078 329.1132 14.89613307633982
GOMX-1
1 39430U 13066Q 25261.30892280 .00001896 00000-0 29888-3 0 9995
2 39430 97.6719 113.7640 0130454 229.5721 129.4048 14.68009037630002
LO-74
1 39440U 13066AA 25260.85489584 .00003484 00000-0 34917-3 0 9998
2 39440 97.8554 204.7974 0060151 207.5005 152.3026 14.90685871636378
AO-73
1 39444U 13066AE 25260.88072824 .00007931 00000-0 57187-3 0 9995
2 39444 97.7927 223.3117 0043086 50.4280 310.0738 15.03665259638658
DTUSAT-2
1 40030U 14033W 25260.89376563 .00007823 00000-0 49058-3 0 9999
2 40030 98.0653 237.7080 0010984 83.1282 277.1195 15.09582016611527
EO-80
1 40032U 14033Y 25260.90876554 .00006865 00000-0 43016-3 0 9991
2 40032 98.0534 237.2389 0009419 34.6847 325.4993 15.09674036611508
LILACSAT-2
1 40908U 15049K 25261.32573846 .00011944 00000-0 28902-3 0 9997
2 40908 97.5029 284.2433 0009958 147.6891 212.4967 15.41230123553734
IO-86
1 40931U 15052B 25151.18580175 .00001241 00000-0 78118-4 0 9996
2 40931 6.0006 24.0987 0012733 338.8432 21.1169 14.78805930523159
Horyu-4
1 41340U 16012D 25261.07056354 .00029144 00000-0 66608-3 0 9997
2 41340 30.9954 174.0285 0005823 14.7643 345.3173 15.41589014528283
Lapan A3
1 41603U 16040E 25261.27354287 .00003502 00000-0 12095-3 0 9999
2 41603 97.1421 261.9949 0008754 269.5985 90.4253 15.30545244513182
CAS-2T
1 41847U 16066G 25261.04379097 .00001187 00000-0 17844-3 0 9992
2 41847 98.4127 334.6116 0344299 234.3786 122.4884 14.43721261465516
CAS-4B
1 42759U 17034B 25260.96500400 .00288969 00000-0 11411-2 0 9993
2 42759 42.9983 76.4091 0024294 281.8728 77.9420 15.84799142458396
CAS-4A
1 42761U 17034D 25260.93199135 .00275271 35246-4 93828-3 0 9991
2 42761 43.0033 71.9739 0024657 291.1777 68.6463 15.88516116458427
TechnoSat
1 42829U 17042E 25261.03989695 .00002826 00000-0 21738-3 0 9996
2 42829 97.4009 65.0345 0016131 307.0187 52.9562 15.02366029445801
AO-91
1 43017U 17073E 25261.08819675 .00007323 00000-0 36442-3 0 9990
2 43017 97.5092 129.3439 0167814 183.0702 176.9512 15.06342893424336
S-Net D
1 43186U 18014G 25261.14065979 .00005401 00000-0 31127-3 0 9990
2 43186 97.5504 163.0183 0007242 231.5749 128.4832 15.12788849417577
S-Net B
1 43187U 18014H 25261.14739664 .00005472 00000-0 31549-3 0 9996
2 43187 97.5508 163.0017 0008051 227.0650 132.9906 15.12766490417578
S-Net A
1 43188U 18014J 25260.74381907 .00005561 00000-0 32034-3 0 9994
2 43188 97.5516 162.7657 0007872 229.1036 130.9513 15.12789929417513
S-Net C
1 43189U 18014K 25260.95160575 .00005465 00000-0 31505-3 0 9999
2 43189 97.5532 163.0028 0009527 221.2421 138.8091 15.12759655416091
Ten-Koh
1 43677U 18084G 25260.93897340 .00002106 00000-0 16994-3 0 9997
2 43677 98.0801 77.1748 0005950 284.3155 75.7407 15.01026153375296
PO-101
1 43678U 18084H 25261.28246221 .00001620 00000-0 13978-3 0 9992
2 43678 98.1078 81.3183 0008290 317.4459 42.6120 14.98767208375461
QO-100
1 43700U 18090A 25261.15890054 .00000124 00000-0 00000-0 0 9997
2 43700 0.0154 212.2398 0001450 6.9353 221.1847 1.00272879 24949
MinXSS-2
1 43758U 18099A 25260.77899747 .00017475 00000-0 62334-3 0 9992
2 43758 97.4924 327.2937 0012010 157.8125 202.3636 15.28884399372269
AO-95
1 43770U 18099N 25261.10548069 .00009847 00000-0 47302-3 0 9994
2 43770 97.4821 318.1391 0009621 214.3954 145.6659 15.19001642371800
SNUSat 2
1 43782U 18099AA 25261.11534983 .00007015 00000-0 36772-3 0 9992
2 43782 97.4503 314.0589 0012503 158.8268 201.3485 15.16019530371727
SnugLite
1 43784U 18099AC 25260.71819865 .00009082 00000-0 43258-3 0 9997
2 43784 97.4316 313.4542 0004401 147.2110 212.9399 15.19349924371839
ITASat 1
1 43786U 18099AE 25261.10579187 .00006560 00000-0 36262-3 0 9998
2 43786 97.4472 313.2514 0013267 212.7965 147.2445 15.14150961371666
EAGLET 1
1 43790U 18099AJ 25261.04949792 .00003711 00000-0 23284-3 0 9994
2 43790 97.4666 312.7968 0011470 197.0677 163.0169 15.09859574371223
ESEO
1 43792U 18099AL 25261.07890973 .00002383 00000-0 18138-3 0 9991
2 43792 97.4366 304.7152 0012383 177.3856 182.7436 15.02956114370913
JO-97
1 43803U 18099AX 25261.11869985 .00012666 00000-0 53936-3 0 9998
2 43803 97.4566 319.3874 0008308 145.8974 214.2798 15.23085158372068
Suomi 100
1 43804U 18099AY 25261.10852773 .00010831 00000-0 50103-3 0 9990
2 43804 97.4633 318.3625 0012896 152.1796 208.0132 15.20246787371962
ISAT
1 43879U 18111D 25261.23231600 .00023054 00000-0 70144-3 0 9999
2 43879 97.5876 178.0732 0007525 178.3701 181.7567 15.33999047369103
UWE-4
1 43880U 18111E 25260.98177354 .00017110 00000-0 60973-3 0 9992
2 43880 97.5819 175.5265 0009720 204.2258 155.8525 15.28947168368959
Sparrow
1 43881U 18111F 25260.73445227 .00026184 00000-0 75923-3 0 9995
2 43881 97.6039 180.8592 0003876 216.2699 143.8282 15.35514855369134
Prox-1
1 44339U 19036A 25261.01939524 .00012024 00000-0 14470-2 0 9998
2 44339 23.9957 121.0879 0006659 135.4478 224.6556 14.82010547332927
Taurus 1
1 44530U 19059C 25261.30561770 .00006513 00000-0 11686-2 0 9994
2 44530 98.6171 45.6207 0009532 86.1529 274.0763 14.67063601318706
Duchifat 3
1 44854U 19089C 25260.85312554 .00084777 00000-0 11137-2 0 9998
2 44854 36.9371 73.3157 0006614 18.7923 341.3080 15.57311763318593
TO-108
1 44881U 19093C 25261.24829133 .00000885 00000-0 10784-3 0 9999
2 44881 97.7850 334.7665 0012331 259.9159 100.0666 14.85794580311024
FloripaSat 1
1 44885U 19093G 25261.28095300 .00005015 00000-0 41266-3 0 9997
2 44885 97.8168 349.1430 0008564 227.2291 132.8212 14.99542318311833
RS-44
1 44909U 19096E 25261.17297594 .00000024 00000-0 45476-4 0 9997
2 44909 82.5249 160.4644 0218504 60.4758 301.7936 12.79743559267559
UPMSat 2
1 46276U 20061E 25261.18370465 .00257070 26644-4 78618-3 0 9994
2 46276 97.2287 340.1722 0003522 220.6570 139.4442 15.91912769281328
SALSAT
1 46495U 20068K 25260.91735551 .00007439 00000-0 30842-3 0 9998
2 46495 97.8707 243.7322 0011517 163.1562 197.0059 15.24146179273801
TUBIN
1 48900U 21059X 25261.30341078 .00072198 00000-0 57653-3 0 9996
2 48900 97.6770 79.4592 0003032 214.0484 146.0583 15.70903115235791
LEDSAT
1 49069U 21073D 25260.83055567 .00222157 00000-0 10424-2 0 9997
2 49069 97.3765 347.7461 0001591 68.3795 291.7643 15.82594972227154
CUTE
1 49263U 21088D 25261.25491249 .00018581 00000-0 31271-3 0 9995
2 49263 97.4427 340.7156 0005859 209.7617 150.3303 15.51758123220012
TeikyoSat 4
1 49396U 21102B 25261.02398994 .00001822 00000-0 12200-3 0 9998
2 49396 97.4029 295.8100 0013443 143.0316 217.1842 15.08043809211683
Z-Sat
1 49399U 21102E 25261.22528866 .00003747 00000-0 20201-3 0 9994
2 49399 97.3723 299.7433 0019491 113.2466 247.0821 15.15216848212214
KOSEN 1
1 49402U 21102H 25261.07138760 .00007311 00000-0 32571-3 0 9996
2 49402 97.3621 303.7952 0017171 88.5166 271.8037 15.21595770212565
